• In Slovakia
  • List of Countries
  • For 7 days
  • Water Temperature
  • Satellite Maps
  • Weather Map
  • Weather Widgets
  • user-avatar
    Login

    Hourly Weather Kerns

    Today, 19 November, Sunday

    Time Temperature Precipitation Wind Pressure Humidity
    00:00 +25°C° 0 mm 2 mps 757 mmHg 93%
    01:00 +25°C° 0 mm 2 mps 757 mmHg 92%
    02:00 +25°C° 0 mm 2 mps 757 mmHg 92%
    03:00 +25°C° 0 mm 2 mps 757 mmHg 93%
    04:00 +25°C° 0 mm 2 mps 757 mmHg 93%
    05:00 +25°C° 0 mm 2 mps 757 mmHg 90%
    06:00 +26°C° 0 mm 2 mps 757 mmHg 88%
    07:00 +26°C° 0 mm 2 mps 758 mmHg 86%
    08:00 +29°C° 0 mm 2 mps 758 mmHg 75%
    09:00 +31°C° 0 mm 2 mps 758 mmHg 64%
    10:00 +34°C° 0 mm 3 mps 758 mmHg 53%
    11:00 +35°C° 0 mm 3 mps 757 mmHg 51%
    12:00 +36°C° 0 mm 3 mps 757 mmHg 49%
    13:00 +36°C° 0 mm 3 mps 756 mmHg 47%
    14:00 +35°C° 0.1 mm 3 mps 756 mmHg 51%
    15:00 +35°C° 0.1 mm 4 mps 756 mmHg 55%
    16:00 +34°C° 0.1 mm 4 mps 755 mmHg 59%
    17:00 +31°C° 0 mm 3 mps 756 mmHg 67%
    18:00 +29°C° 0 mm 3 mps 756 mmHg 74%
    19:00 +27°C° 0 mm 3 mps 756 mmHg 82%
    20:00 +27°C° 0 mm 3 mps 757 mmHg 84%
    21:00 +27°C° 0 mm 3 mps 757 mmHg 86%
    22:00 +26°C° 0 mm 2 mps 758 mmHg 88%
    23:00 +26°C° 0 mm 2 mps 758 mmHg 88%

    Tomorrow, 20 November, Monday

    Time Temperature Precipitation Wind Pressure Humidity
    00:00 +26°C° 0 mm 3 mps 757 mmHg 88%
    01:00 +26°C° 0 mm 3 mps 757 mmHg 88%
    02:00 +26°C° 0.1 mm 2 mps 757 mmHg 89%
    03:00 +26°C° 0.1 mm 2 mps 757 mmHg 89%
    04:00 +26°C° 0.1 mm 2 mps 757 mmHg 90%
    05:00 +26°C° 0 mm 2 mps 757 mmHg 89%
    06:00 +26°C° 0 mm 2 mps 758 mmHg 88%
    07:00 +27°C° 0 mm 2 mps 758 mmHg 86%
    08:00 +29°C° 0 mm 2 mps 758 mmHg 77%
    09:00 +31°C° 0 mm 3 mps 758 mmHg 67%
    10:00 +34°C° 0 mm 3 mps 758 mmHg 58%
    11:00 +33°C° 0.2 mm 3 mps 758 mmHg 61%
    12:00 +33°C° 0.2 mm 4 mps 758 mmHg 65%
    13:00 +32°C° 0.2 mm 4 mps 757 mmHg 69%
    14:00 +32°C° 0.3 mm 4 mps 757 mmHg 70%
    15:00 +30°C° 0.3 mm 4 mps 756 mmHg 71%
    16:00 +30°C° 0.3 mm 4 mps 756 mmHg 73%
    17:00 +29°C° 0 mm 4 mps 756 mmHg 77%
    18:00 +28°C° 0 mm 4 mps 757 mmHg 82%
    19:00 +27°C° 0 mm 4 mps 757 mmHg 87%
    20:00 +27°C° 0.1 mm 4 mps 758 mmHg 88%
    21:00 +27°C° 0.1 mm 4 mps 758 mmHg 89%
    22:00 +26°C° 0.1 mm 4 mps 759 mmHg 89%
    23:00 +26°C° 0.3 mm 4 mps 759 mmHg 90%

    Day after tomorrow, 21 November, Tuesday

    Time Temperature Precipitation Wind Pressure Humidity
    00:00 +26°C° 0.3 mm 4 mps 758 mmHg 91%
    01:00 +26°C° 0.3 mm 4 mps 758 mmHg 92%
    02:00 +26°C° 0.4 mm 4 mps 757 mmHg 92%
    03:00 +25°C° 0.4 mm 3 mps 757 mmHg 93%
    04:00 +25°C° 0.4 mm 3 mps 757 mmHg 94%
    05:00 +25°C° 0.2 mm 3 mps 757 mmHg 92%
    06:00 +26°C° 0.2 mm 3 mps 758 mmHg 91%
    07:00 +26°C° 0.2 mm 3 mps 758 mmHg 89%
    08:00 +27°C° 0.1 mm 3 mps 758 mmHg 82%
    09:00 +29°C° 0.1 mm 3 mps 759 mmHg 75%
    10:00 +30°C° 0.1 mm 3 mps 759 mmHg 68%
    11:00 +31°C° 0.4 mm 3 mps 758 mmHg 67%
    12:00 +32°C° 0.4 mm 4 mps 758 mmHg 66%
    13:00 +33°C° 0.4 mm 4 mps 757 mmHg 65%
    14:00 +32°C° 0.4 mm 4 mps 757 mmHg 68%
    15:00 +30°C° 0.4 mm 4 mps 756 mmHg 71%
    16:00 +30°C° 0.4 mm 4 mps 756 mmHg 74%
    17:00 +28°C° 0.2 mm 4 mps 756 mmHg 79%
    18:00 +27°C° 0.2 mm 4 mps 756 mmHg 84%
    19:00 +26°C° 0.2 mm 4 mps 756 mmHg 89%
    20:00 +26°C° 0.4 mm 4 mps 757 mmHg 90%
    21:00 +26°C° 0.4 mm 4 mps 757 mmHg 91%
    22:00 +26°C° 0.4 mm 4 mps 758 mmHg 92%
    23:00 +25°C° 0.7 mm 4 mps 757 mmHg 92%

    22 November, Wednesday

    Time Temperature Precipitation Wind Pressure Humidity
    00:00 +25°C° 0.7 mm 4 mps 757 mmHg 93%
    01:00 +25°C° 0.7 mm 4 mps 756 mmHg 93%
    02:00 +25°C° 0.5 mm 3 mps 756 mmHg 94%
    03:00 +25°C° 0.5 mm 2 mps 756 mmHg 94%
    04:00 +25°C° 0.5 mm 1 mps 756 mmHg 95%
    05:00 +25°C° 0.3 mm 1 mps 756 mmHg 94%
    06:00 +25°C° 0.3 mm 1 mps 757 mmHg 94%
    07:00 +25°C° 0.3 mm 2 mps 757 mmHg 93%
    08:00 +26°C° 0 mm 2 mps 757 mmHg 87%
    09:00 +28°C° 0 mm 2 mps 757 mmHg 80%
    10:00 +29°C° 0 mm 2 mps 757 mmHg 74%
    11:00 +30°C° 0.2 mm 2 mps 757 mmHg 69%
    12:00 +31°C° 0.2 mm 3 mps 756 mmHg 63%
    13:00 +33°C° 0.2 mm 3 mps 756 mmHg 58%
    14:00 +31°C° 0.3 mm 3 mps 755 mmHg 63%
    15:00 +30°C° 0.3 mm 3 mps 755 mmHg 69%
    16:00 +29°C° 0.3 mm 4 mps 755 mmHg 74%
    17:00 +28°C° 0.2 mm 4 mps 755 mmHg 79%
    18:00 +27°C° 0.2 mm 4 mps 755 mmHg 85%
    19:00 +26°C° 0.2 mm 3 mps 755 mmHg 90%
    20:00 +25°C° 0.1 mm 3 mps 756 mmHg 92%
    21:00 +25°C° 0.1 mm 3 mps 756 mmHg 93%
    22:00 +25°C° 0.1 mm 3 mps 756 mmHg 94%
    23:00 +25°C° 0.3 mm 3 mps 756 mmHg 95%

    23 November, Thursday

    Time Temperature Precipitation Wind Pressure Humidity
    00:00 +25°C° 0.3 mm 3 mps 756 mmHg 95%
    01:00 +25°C° 0.3 mm 2 mps 756 mmHg 95%
    02:00 +24°C° 0.2 mm 2 mps 756 mmHg 96%
    03:00 +24°C° 0.2 mm 2 mps 755 mmHg 96%
    04:00 +24°C° 0.2 mm 2 mps 755 mmHg 96%
    05:00 +25°C° 0.1 mm 2 mps 756 mmHg 94%
    06:00 +25°C° 0.1 mm 2 mps 757 mmHg 92%
    07:00 +26°C° 0.1 mm 2 mps 757 mmHg 90%
    08:00 +27°C° 0.1 mm 2 mps 757 mmHg 82%
    09:00 +29°C° 0.1 mm 2 mps 757 mmHg 73%
    10:00 +31°C° 0.1 mm 3 mps 757 mmHg 64%
    11:00 +31°C° 0.5 mm 3 mps 757 mmHg 65%
    12:00 +33°C° 0.5 mm 3 mps 756 mmHg 65%
    13:00 +33°C° 0.5 mm 3 mps 756 mmHg 66%
    14:00 +31°C° 0.4 mm 3 mps 755 mmHg 69%
    15:00 +30°C° 0.4 mm 3 mps 755 mmHg 73%
    16:00 +29°C° 0.4 mm 3 mps 755 mmHg 76%
    17:00 +28°C° 0.3 mm 3 mps 756 mmHg 80%
    18:00 +27°C° 0.3 mm 3 mps 756 mmHg 85%
    19:00 +26°C° 0.3 mm 3 mps 757 mmHg 89%
    20:00 +26°C° 0.2 mm 3 mps 757 mmHg 91%
    21:00 +26°C° 0.2 mm 3 mps 757 mmHg 92%
    22:00 +25°C° 0.2 mm 3 mps 758 mmHg 94%
    23:00 +25°C° 0.1 mm 3 mps 757 mmHg 95%

    24 November, Friday

    Time Temperature Precipitation Wind Pressure Humidity
    00:00 +25°C° 0.1 mm 2 mps 757 mmHg 96%
    01:00 +25°C° 0.1 mm 2 mps 757 mmHg 96%
    02:00 +25°C° 0.4 mm 2 mps 757 mmHg 96%
    03:00 +25°C° 0.4 mm 2 mps 757 mmHg 96%
    04:00 +25°C° 0.4 mm 2 mps 757 mmHg 96%
    05:00 +26°C° 0.2 mm 2 mps 757 mmHg 94%
    06:00 +26°C° 0.2 mm 2 mps 758 mmHg 92%
    07:00 +26°C° 0.2 mm 2 mps 758 mmHg 90%
    08:00 +28°C° 0.1 mm 2 mps 758 mmHg 83%
    09:00 +29°C° 0.1 mm 2 mps 758 mmHg 76%
    10:00 +31°C° 0.1 mm 3 mps 758 mmHg 69%
    11:00 +31°C° 0.3 mm 3 mps 758 mmHg 68%
    12:00 +33°C° 0.3 mm 3 mps 757 mmHg 66%
    13:00 +34°C° 0.3 mm 3 mps 757 mmHg 65%
    14:00 +33°C° 0.3 mm 3 mps 757 mmHg 68%
    15:00 +31°C° 0.3 mm 3 mps 756 mmHg 71%
    16:00 +31°C° 0.3 mm 3 mps 756 mmHg 73%
    17:00 +30°C° 0.2 mm 3 mps 757 mmHg 79%
    18:00 +28°C° 0.2 mm 2 mps 757 mmHg 84%
    19:00 +27°C° 0.2 mm 2 mps 758 mmHg 89%
    20:00 +27°C° 0.3 mm 2 mps 758 mmHg 91%
    21:00 +27°C° 0.3 mm 2 mps 758 mmHg 92%
    22:00 +26°C° 0.3 mm 2 mps 758 mmHg 94%
    23:00 +26°C° 0.1 mm 2 mps 758 mmHg 95%
    Show more